Location: Vlasim
(49.7000°N, 14.9000°E)
Time: 09:41:45
(UTC+01:00)

ISS - Visible Passes

Search period start: 19 January 2019 00:00
Search period end: 29 January 2019 00:00
Orbit: 404 x 411 km, 51.6° (Epoch: 19 January)

Date Brightness Start Highest point End Pass type
(mag) Time Alt. Az. Time Alt. Az. Time Alt. Az.
22 Jan -0.6 19:29:53 10° SW 19:29:54 10° SW 19:29:54 10° SW visible
23 Jan -2.0 18:39:00 10° SSW 18:40:55 21° SSE 18:40:55 21° SSE visible
24 Jan -1.7 17:48:31 10° S 17:50:31 15° SE 17:51:51 13° ESE visible
24 Jan -1.4 19:23:18 10° WSW 19:24:35 21° SW 19:24:35 21° SW visible
25 Jan -3.3 18:32:05 10° SW 18:35:14 44° SSE 18:35:26 43° SE visible
26 Jan -2.5 17:41:02 10° SSW 17:43:56 29° SE 17:46:13 14° E visible
26 Jan -2.1 19:16:57 10° WSW 19:18:57 34° W 19:18:57 34° W visible
27 Jan -3.9 18:25:31 10° WSW 18:28:49 76° SSE 18:29:40 46° E visible
27 Jan -0.3 20:02:11 10° W 20:02:23 11° W 20:02:23 11° W visible
28 Jan -3.4 17:34:12 10° SW 17:37:25 53° SSE 17:40:21 12° ENE visible
28 Jan -2.6 19:10:40 10° W 19:13:04 42° WNW 19:13:04 42° WNW visible
